This is the latest recevied weather packets stored in our database for station/object SP9UVG-13. If no packets are shown the sender has not sent any weather packets the latest 10 day(s).
| Time | Temp. | Humidity | Pressure | Rain* | Wind** | Luminosity | Snow |
|---|---|---|---|---|---|---|---|
| 1787832054 | 28.33° C | 34% | 1006.5 hPa | 0 mm | - | - | - |
| 1787831513 | 30° C | 33% | 1006.7 hPa | 0 mm | - | - | - |
| 1787830432 | 30° C | 33% | 1006.6 hPa | 0 mm | - | - | - |
| 1787829892 | 30.56° C | 33% | 1006.6 hPa | 0 mm | - | - | - |
| 1787829351 | 30.56° C | 33% | 1006.5 hPa | 0 mm | - | - | - |
| 1787828811 | 30° C | 33% | 1006.6 hPa | 0 mm | - | - | - |
| 1787827730 | 32.22° C | 30% | 1006.7 hPa | 0 mm | - | - | - |
| 1787827189 | 32.78° C | 31% | 1006.7 hPa | 0 mm | - | - | - |
| 1787826649 | 31.11° C | 31% | 1006.8 hPa | 0 mm | - | - | - |
| 1787826108 | 32.22° C | 31% | 1006.7 hPa | 0 mm | - | - | - |
| 1787825568 | 31.67° C | 33% | 1006.8 hPa | 0 mm | - | - | - |
| 1787825027 | 30.56° C | 33% | 1006.8 hPa | 0 mm | - | - | - |
| 1787824486 | 32.22° C | 31% | 1007 hPa | 0 mm | - | - | - |
| 1787823405 | 32.78° C | 33% | 1007.1 hPa | 0 mm | - | - | - |
| 1787822865 | 32.22° C | 31% | 1007.2 hPa | 0 mm | - | - | - |
| 1787822324 | 32.22° C | 32% | 1007.2 hPa | 0 mm | - | - | - |
| 1787821784 | 31.11° C | 33% | 1007.2 hPa | 0 mm | - | - | - |
| 1787821243 | 31.11° C | 33% | 1007.2 hPa | 0 mm | - | - | - |
| 1787820703 | 31.11° C | 34% | 1007.3 hPa | 0 mm | - | - | - |
| 1787820162 | 31.11° C | 34% | 1007.3 hPa | 0 mm | - | - | - |
| 1787819622 | 31.11° C | 33% | 1007.2 hPa | 0 mm | - | - | - |
| 1787819081 | 31.67° C | 33% | 1007.2 hPa | 0 mm | - | - | - |
| 1787818582 | 31.11° C | 35% | 1007.5 hPa | 0 mm | - | - | - |
| 1787818541 | 31.11° C | 35% | 1007.5 hPa | 0 mm | - | - | - |
| 1787818000 | 31.11° C | 35% | 1007.2 hPa | 0 mm | - | - | - |
* Rain latest hour (hover to see other rain measurements)
** Current wind speed in m/s (hover to see current wind gust speed)